Weather History for Devils Lake, ND

Change the Weather History Date:

Wednesday, September 4, 2013

  Actual Average Record
Temperature  
Mean Temperature 60 °F -  
Max Temperature 71 °F 75 °F 95 °F (1948)
Min Temperature 50 °F 49 °F 36 °F (1962)
Degree Days  
Heating Degree Days 4    
Growing Degree Days 10 (Base 50)    
Moisture  
Dew Point 45 °F    
Average Humidity 57    
Maximum Humidity 76    
Minimum Humidity 41    
Precipitation  
Precipitation 0.00 in - - ()
Sea Level Pressure  
Sea Level Pressure 30.16 in    
Wind  
Wind Speed 9 mph (East)    
Max Wind Speed 15 mph    
Max Gust Speed 21 mph    
Visibility 10 miles    
Events      
Averages and records for this station are not official NWS values.
T = Trace of Precipitation, MM = Missing Value Source: NWS Daily Summary

Daily Weather History Graph

Daily Weather History Graph

Search for Another Location

Airport:

Trip Planner

Search our weather history database for the weather conditions in past years. The results will help you decide how hot, cold, wet, or windy it might be!

Date:

Astronomy

Sep. 04, 2013 Rise Set
Actual Time 6:57 AM CDT 8:10 PM CDT
Civil Twilight 6:25 AM CDT 8:42 PM CDT
Nautical Twilight 5:47 AM CDT 9:20 PM CDT
Astronomical Twilight 5:05 AM CDT 10:01 PM CDT
Moon 6:12 AM CDT (9/4) 7:27 PM CDT (9/4)
Length of Visible Light 14h 16m
Length of Day
13h 12m
Waning Crescent, 1% of the Moon is Illuminated
Sep 4
Waning Crescent
Sep 5
New
Sep 12
First Quarter
Sep 19
Full
Sep 26
Last Quarter

Hourly Weather History & Observations

Time (CDT) Temp. Dew Point Humidity Pressure Visibility Wind Dir Wind Speed Gust Speed Precip Events Conditions
12:15 AM 64.4 °F 51.8 °F 64% 30.08 in 10.0 mi ENE 15.0 mph 20.7 mph N/A   Clear
12:35 AM 62.6 °F 51.8 °F 68% 30.09 in 10.0 mi NE 12.7 mph - N/A   Clear
12:55 AM 62.6 °F 48.2 °F 59% 30.09 in 10.0 mi ENE 13.8 mph 18.4 mph N/A   Clear
1:15 AM 60.8 °F 46.4 °F 59% 30.10 in 10.0 mi ENE 13.8 mph - N/A   Clear
1:35 AM 60.8 °F 44.6 °F 55% 30.10 in 10.0 mi NE 10.4 mph 17.3 mph N/A   Clear
1:55 AM 60.8 °F 46.4 °F 59% 30.11 in 10.0 mi NE 9.2 mph - N/A   Clear
2:15 AM 59.0 °F 44.6 °F 59% 30.11 in 10.0 mi NE 12.7 mph - N/A   Clear
2:35 AM 57.2 °F 42.8 °F 59% 30.11 in 10.0 mi ENE 9.2 mph - N/A   Clear
2:55 AM 57.2 °F 42.8 °F 59% 30.12 in 10.0 mi ENE 8.1 mph - N/A   Clear
3:15 AM 55.4 °F 42.8 °F 63% 30.13 in 10.0 mi ENE 6.9 mph - N/A   Clear
3:35 AM 55.4 °F 41.0 °F 58% 30.13 in 10.0 mi NE 8.1 mph - N/A   Clear
3:55 AM 55.4 °F 41.0 °F 58% 30.13 in 10.0 mi ENE 8.1 mph - N/A   Clear
4:15 AM 53.6 °F 41.0 °F 62% 30.14 in 10.0 mi ENE 6.9 mph - N/A   Clear
4:35 AM 53.6 °F 42.8 °F 67% 30.14 in 10.0 mi ENE 8.1 mph - N/A   Clear
4:55 AM 53.6 °F 42.8 °F 67% 30.14 in 10.0 mi East 5.8 mph - N/A   Clear
5:15 AM 51.8 °F 42.8 °F 71% 30.14 in 10.0 mi ENE 5.8 mph - N/A   Clear
5:35 AM 51.8 °F 42.8 °F 71% 30.14 in 10.0 mi NE 8.1 mph - N/A   Clear
5:55 AM 51.8 °F 42.8 °F 71% 30.14 in 10.0 mi ENE 5.8 mph - N/A   Clear
6:15 AM 50.0 °F 42.8 °F 76% 30.15 in 10.0 mi ENE 5.8 mph - N/A   Clear
6:35 AM 50.0 °F 42.8 °F 76% 30.15 in 10.0 mi NE 5.8 mph - N/A   Clear
6:55 AM 50.0 °F 42.8 °F 76% 30.16 in 10.0 mi NE 5.8 mph - N/A   Clear
7:15 AM 50.0 °F 42.8 °F 76% 30.16 in 10.0 mi NE 5.8 mph - N/A   Clear
7:35 AM 50.0 °F 42.8 °F 76% 30.17 in 10.0 mi NE 5.8 mph - N/A   Clear
7:55 AM 51.8 °F 44.6 °F 76% 30.17 in 10.0 mi ENE 4.6 mph - N/A   Clear
8:15 AM 51.8 °F 44.6 °F 76% 30.17 in 10.0 mi ENE 6.9 mph - N/A   Clear
8:35 AM 51.8 °F 44.6 °F 76% 30.18 in 10.0 mi ENE 8.1 mph - N/A   Clear
8:55 AM 53.6 °F 44.6 °F 72% 30.18 in 10.0 mi ENE 6.9 mph - N/A   Clear
9:15 AM 53.6 °F 44.6 °F 72% 30.19 in 10.0 mi ENE 5.8 mph - N/A   Clear
9:35 AM 55.4 °F 46.4 °F 72% 30.19 in 10.0 mi East 9.2 mph - N/A   Clear
9:55 AM 57.2 °F 46.4 °F 67% 30.20 in 10.0 mi ENE 6.9 mph - N/A   Clear
10:15 AM 59.0 °F 46.4 °F 63% 30.21 in 10.0 mi ENE 6.9 mph - N/A   Clear
10:35 AM 60.8 °F 46.4 °F 59% 30.21 in 10.0 mi East 6.9 mph - N/A   Clear
10:55 AM 60.8 °F 46.4 °F 59% 30.21 in 10.0 mi East 9.2 mph - N/A   Clear
11:15 AM 62.6 °F 46.4 °F 55% 30.21 in 10.0 mi ENE 9.2 mph - N/A   Clear
11:35 AM 64.4 °F 48.2 °F 56% 30.21 in 10.0 mi East 8.1 mph - N/A   Clear
11:55 AM 64.4 °F 48.2 °F 56% 30.22 in 9.0 mi East 8.1 mph - N/A   Clear
12:15 PM 66.2 °F 46.4 °F 49% 30.22 in 8.0 mi East 9.2 mph - N/A   Clear
12:35 PM 66.2 °F 46.4 °F 49% 30.21 in 9.0 mi East 6.9 mph - N/A   Clear
12:55 PM 66.2 °F 46.4 °F 49% 30.21 in 7.0 mi East 9.2 mph - N/A   Clear
1:15 PM 68.0 °F 46.4 °F 46% 30.20 in 10.0 mi East 8.1 mph - N/A   Clear
1:35 PM 68.0 °F 46.4 °F 46% 30.19 in 10.0 mi SSE 10.4 mph - N/A   Clear
1:55 PM 69.8 °F 46.4 °F 43% 30.19 in 7.0 mi ESE 5.8 mph - N/A   Clear
2:15 PM 69.8 °F 46.4 °F 43% 30.18 in 8.0 mi South 5.8 mph - N/A   Clear
2:35 PM 71.6 °F 46.4 °F 41% 30.18 in 9.0 mi East 8.1 mph - N/A   Clear
2:55 PM 71.6 °F 46.4 °F 41% 30.18 in 10.0 mi ESE 6.9 mph - N/A   Clear
3:15 PM 71.6 °F 46.4 °F 41% 30.17 in 10.0 mi East 9.2 mph - N/A   Clear
3:35 PM 71.6 °F 46.4 °F 41% 30.17 in 10.0 mi ENE 9.2 mph - N/A   Clear
3:55 PM 71.6 °F 46.4 °F 41% 30.18 in 8.0 mi ENE 9.2 mph - N/A   Clear
4:15 PM 69.8 °F 46.4 °F 43% 30.18 in 10.0 mi NE 11.5 mph - N/A   Clear
4:35 PM 69.8 °F 46.4 °F 43% 30.18 in 10.0 mi ENE 11.5 mph - N/A   Clear
4:55 PM 68.0 °F 46.4 °F 46% 30.17 in 9.0 mi ENE 10.4 mph - N/A   Clear
5:15 PM 66.2 °F 44.6 °F 46% 30.17 in 10.0 mi East 10.4 mph - N/A   Clear
5:35 PM 66.2 °F 44.6 °F 46% 30.17 in 10.0 mi East 10.4 mph - N/A   Clear
5:55 PM 66.2 °F 44.6 °F 46% 30.17 in 10.0 mi ENE 10.4 mph - N/A   Clear
6:15 PM 66.2 °F 44.6 °F 46% 30.17 in 8.0 mi East 10.4 mph - N/A   Clear
6:35 PM 66.2 °F 44.6 °F 46% 30.16 in 6.0 mi East 9.2 mph - N/A   Clear
6:55 PM 66.2 °F 44.6 °F 46% 30.17 in 6.0 mi East 8.1 mph - N/A   Clear
7:15 PM 64.4 °F 44.6 °F 49% 30.17 in 10.0 mi East 9.2 mph - N/A   Clear
7:35 PM 64.4 °F 42.8 °F 45% 30.17 in 8.0 mi East 6.9 mph - N/A   Clear
7:55 PM 62.6 °F 42.8 °F 48% 30.16 in 5.0 mi East 5.8 mph - N/A   Clear
8:15 PM 62.6 °F 42.8 °F 48% 30.16 in 10.0 mi East 6.9 mph - N/A   Clear
8:35 PM 60.8 °F 42.8 °F 52% 30.16 in 10.0 mi East 5.8 mph - N/A   Clear
8:55 PM 60.8 °F 42.8 °F 52% 30.17 in 10.0 mi ESE 5.8 mph - N/A   Clear
9:15 PM 59.0 °F 42.8 °F 55% 30.17 in 10.0 mi East 4.6 mph - N/A   Clear
9:35 PM 60.8 °F 44.6 °F 55% 30.17 in 10.0 mi East 8.1 mph - N/A   Clear
9:55 PM 60.8 °F 44.6 °F 55% 30.17 in 10.0 mi East 8.1 mph - N/A   Clear
10:15 PM 60.8 °F 44.6 °F 55% 30.17 in 10.0 mi East 6.9 mph - N/A   Clear
10:35 PM 59.0 °F 44.6 °F 59% 30.17 in 10.0 mi East 8.1 mph - N/A   Clear
10:55 PM 59.0 °F 44.6 °F 59% 30.17 in 10.0 mi ESE 8.1 mph - N/A   Clear
11:15 PM 57.2 °F 44.6 °F 63% 30.18 in 10.0 mi East 6.9 mph - N/A   Clear
11:35 PM 57.2 °F 44.6 °F 63% 30.18 in 10.0 mi ESE 5.8 mph - N/A   Clear
11:55 PM 57.2 °F 44.6 °F 63% 30.18 in 10.0 mi ESE 5.8 mph - N/A   Clear